Regional Weather Roundup
Issued by NWS

Home | Current Version | Previous Version | Graphics & Text | Print | Product List | Glossary On
Versions: 1 2 3 4 5 6 7 8 9 10 11 12 13 14 15 16 17 18 19 20 21 22 23 24 25 26 27 28 29 30 31 32 33 34 35 36 37 38 39 40 41 42 43 44 45 46 47 48 49 50
000
ASUS43 KLOT 061708
RWRIL

ILLINOIS REGIONAL WEATHER ROUNDUP
NATIONAL WEATHER SERVICE CHICAGO/ROMEOVILLE IL
1100 AM CST TUE DEC 06 2016

NOTE: "FAIR" INDICATES FEW OR NO CLOUDS BELOW 12,000 FEET WITH NO
SIGNIFICANT WEATHER AND/OR OBSTRUCTIONS TO VISIBILITY.

* THESE STATIONS ARE NOT UNDER NWS QUALITY CONTROL. THEY ALSO MAY NOT
  REPORT WEATHER SUCH AS PRECIPITATION OR FOG.

ILZ001-002-007-009-015-016-024-061800-
NORTHWEST ILLINOIS

CITY           SKY/WX    TMP DP  RH WIND       PRES   REMARKS
MOLINE         CLOUDY    34  30  85 W16       29.85R WCI  24
STERLING*      FOG       33  33 100 SW6       29.82F VSB 1/4 WCI  28
SAVANNA*       CLOUDY    34  33  99 SW8       29.83S FOG     WCI  27
$$

ILZ003-004-008-010-011-017-018-061800-
NORTH CENTRAL ILLINOIS

CITY           SKY/WX    TMP DP  RH WIND       PRES   REMARKS
ROCKFORD       CLOUDY    34  31  88 W7        29.80F FOG     WCI  28
FREEPORT*      CLOUDY    32  32 100 SW7       29.81F FOG     WCI  26
ROCHELLE*      FOG       32  32 100 W8        29.80S VSB 1   WCI  25
DE KALB*       FOG       32  32 100 NW10      29.79R VSB 3/4 WCI  24
$$

ILZ005-006-012>014-019>023-061800-
NORTHEAST ILLINOIS

CITY           SKY/WX    TMP DP  RH WIND       PRES   REMARKS
CHICAGO-OHARE  PTSUNNY   37  34  89 W6        29.75F FOG     WCI  32
CHICAGO-MIDWAY MOSUNNY   38  33  82 W5        29.76F FOG     WCI  34
AURORA         FOG       33  31  92 W7        29.78F VSB<1/4 WCI  27
LANSING*       CLOUDY    36  33  89 CALM      29.76F FOG
JOLIET*        CLOUDY    33  32  95 NW5       29.77F FOG     WCI  29
WAUKEGAN       CLOUDY    40  34  79 CALM      29.73F
DUPAGE AIRPORT CLOUDY    34  34 100 W5        29.75F FOG     WCI  30
KANKAKEE*      SUNNY     35  30  83 CALM      29.77F HAZE
WHEELING       FOG       38  34  85 NW5       29.76F VSB 1   WCI  34
MORRIS*        FOG       30  29  97 W8        29.77F VSB 1/4 WCI  22
ROMEOVILLE*    FOG       32  32 100 NW6       29.76F VSB<1/4 WCI  26
NORTHERLY ISL    N/A     41  32  70 SE3         N/A
$$

LMZ740>746-061800-
SOUTHERN LAKE MICHIGAN

STATION/POSITION SKY/WX   TEMP    WIND        PRES    VSBY  WAVE
                          AIR SEA DIR/SP/G                  HT/PER
                          (F)     (DEG/KT/KT) (MB)    (MI)  (FT/S)
HARRISON CRIB              41     160/  2/  4   N/A
BURNHAM HARBOR             41      70/  1/  5   N/A
CALUMET HARBOR             39     170/  2/  3 1007.3F
BURNS HARBOR               37     270/  4/  5 1008.8R
MICHIGAN CITY              36     210/  3/  4   N/A
$$

ILZ025>027-034>036-040-047-049-050-058-095>099-061800-
WEST-CENTRAL ILLINOIS

CITY           SKY/WX    TMP DP  RH WIND       PRES   REMARKS
QUINCY         CLOUDY    37  34  89 NW15      29.91R WCI  28
GALESBURG*     CLOUDY    35  35 100 W12       29.86R FOG     WCI  26
MACOMB*        CLOUDY    37  36  97 NW15G23   29.89R FOG     WCI  28
JACKSONVILLE*  CLOUDY    37  35  94 W10       29.88S FOG     WCI  30
PITTSFIELD*    CLOUDY    38  37  92 NW10      29.91R FOG     WCI  32
$$

ILZ028>032-037-038-041>044-048-051>054-059>061-061800-
CENTRAL ILLINOIS

CITY           SKY/WX    TMP DP  RH WIND       PRES   REMARKS
PONTIAC        FOG       33  33 100 NW9       29.80S VSB 1   WCI  25
BLOOMINGTON    CLOUDY    34  33  96 W14       29.82R FOG     WCI  25
DECATUR        CLOUDY    37  33  85 NW8       29.82R FOG     WCI  31
PEORIA         CLOUDY    36  35  96 W7        29.85R WCI  30
LACON*         CLOUDY    34  33  97 W9        29.83R FOG     WCI  26
LINCOLN*       CLOUDY    37  35  92 NW8       29.85R WCI  31
SPRINGFIELD    CLOUDY    38  35  89 NW13      29.87R FOG     WCI  30
TAYLORVILLE    CLOUDY    36  33  90 NW16G23   29.86R WCI  26
$$

ILZ033-039-045-046-055>057-062-063-061800-
EAST-CENTRAL ILLINOIS

CITY           SKY/WX    TMP DP  RH WIND       PRES   REMARKS
CHAMPAIGN      CLOUDY    37  33  85 NW13      29.78S FOG     WCI  29
RANTOUL*       CLOUDY    36  34  95 NW9       29.78R FOG     WCI  29
MATTOON        CLOUDY    40  35  83 NW13      29.79R HAZE
PARIS*         CLOUDY    39  37  93 NW10      29.79R WCI  32
$$

ILZ079-100>102-061800-
SOUTHWEST ILLINOIS

CITY           SKY/WX    TMP DP  RH WIND       PRES   REMARKS
ALTON          CLOUDY    39  34  81 NW17G25   29.90R WCI  30
BELLEVILLE     CLOUDY    41  38  87 NW14G21   29.87R
CAHOKIA*       CLOUDY    42  34  73 NW15      29.91R
SPARTA*        CLOUDY    39  35  84 NW15      29.89R WCI  31
$$

ILZ064>066-069>071-074>076-080>082-084>086-088>090-092>094-061800-
SOUTH-CENTRAL ILLINOIS

CITY           SKY/WX    TMP DP  RH WIND       PRES   REMARKS
CARBONDALE     CLOUDY    41  38  89 NW15      29.86R
CAIRO*         CLOUDY    42  39  88 NW15      29.85R
EFFINGHAM*     CLOUDY    40  38  93 NW16      29.84R
MARION         CLOUDY    41  39  93 NW12      29.86R
CENTRALIA*     CLOUDY    38  36  92 NW13G21   29.85R WCI  30
SALEM*         CLOUDY    39  36  87 NW12G17   29.85R WCI  32
METROPOLIS*    CLOUDY    45  41  88 NW12G18   29.83S
$$

ILZ067-068-072-073-078-083-087-091-061800-
SOUTHEAST ILLINOIS

CITY           SKY/WX    TMP DP  RH WIND       PRES   REMARKS
LAWRENCEVILLE  CLOUDY    41  39  93 NW9       29.79S
FLORA*         CLOUDY    43  39  87 NW12      29.83R
FAIRFIELD*     CLOUDY    41  39  93 NW6       29.81R
HARRISBURG*    CLOUDY    44  41  89 NW14G20   29.83R
ROBINSON*      CLOUDY    40  38  93 W8        29.80R
CARMI*         CLOUDY    43  41  94 NW13      29.80F FOG
$$

ABBREVIATIONS USED IN REMARKS
   TC - TEMPERATURE IN CELSIUS
  WCI - WIND CHILL INDEX
   HX - HEAT INDEX
  VSB - VISIBILITY
$$




USA.gov is the U.S. government's official web portal to all federal, state and local government web resources and services.